Location: Unspecified
(41.2830°S, 0.0000°E)
Time: 14:28:45
(UTC+00:00)

ISS - Visible Passes

Search period start: 19 May 2019 00:00
Search period end: 29 May 2019 00:00
Orbit: 408 x 410 km, 51.6° (Epoch: 19 May)

Date Brightness Start Highest point End Pass type
(mag) Time Alt. Az. Time Alt. Az. Time Alt. Az.
24 May -1.3 05:47:29 10° N 05:50:15 24° NE 05:53:03 10° ESE visible
25 May -0.7 04:57:47 10° NNE 04:59:29 13° NE 05:01:12 10° E visible
25 May -3.8 06:32:18 10° WNW 06:35:39 72° SW 06:39:02 10° SE visible
26 May -3.3 05:42:15 17° NW 05:44:41 62° NE 05:48:02 10° ESE visible
27 May -1.9 04:54:18 31° ENE 04:54:18 31° ENE 04:56:51 10° ESE visible
27 May -3.0 06:27:14 10° W 06:30:20 34° SSW 06:33:28 10° SE visible
28 May -3.6 05:38:50 50° WSW 05:39:14 54° SSW 05:42:34 10° SE visible
